| time (UTC) | temp C | wind direction | speed KPH | gust KPH | rain 1hr cm | rain 24hr cm | rain mn cm | humidity % | barometer mb |
| 20260905061555 | 11 | 206 | 0.0 | 3.2 | 0.00 | 0.48 | 0.46 | 100 | 1015.6 |
| 20260905060047 | 11 | 206 | 0.0 | 1.6 | 0.00 | 0.48 | 0.46 | 100 | 1015.7 |
| 20260905054542 | 11 | 206 | 0.0 | 0.0 | 0.00 | 0.48 | 0.46 | 100 | 1015.5 |
| 20260905053036 | 12 | 206 | 0.0 | 0.0 | 0.00 | 0.48 | 0.46 | 100 | 1015.5 |
| 20260905051533 | 12 | 206 | 0.0 | 0.0 | 0.00 | 0.48 | 0.46 | 100 | 1015.4 |
| 20260905050028 | 11 | 206 | 0.0 | 0.0 | 0.00 | 0.48 | 0.46 | 100 | 1015.4 |
| 20260905044528 | 11 | 206 | 0.0 | 0.0 | 0.00 | 0.48 | 0.46 | 100 | 1015.3 |
| 20260905043020 | 11 | 206 | 0.0 | 0.0 | 0.00 | 0.48 | 0.46 | 100 | 1015.2 |
| 20260905041514 | 12 | 206 | 0.0 | 0.0 | 0.00 | 0.48 | 0.46 | 100 | 1015.1 |
| 20260905040010 | 12 | 206 | 0.0 | 0.0 | 0.00 | 0.48 | 0.46 | 100 | 1014.9 |
| 20260905034506 | 12 | 206 | 0.0 | 0.0 | 0.00 | 0.48 | 0.46 | 100 | 1014.8 |
| 20260905033002 | 12 | 206 | 0.0 | 1.6 | 0.00 | 0.48 | 0.46 | 100 | 1014.6 |
| 20260905031600 | 12 | 206 | 0.0 | 1.6 | 0.00 | 0.48 | 0.46 | 100 | 1014.5 |
| 20260905030053 | 12 | 206 | 0.0 | 4.8 | 0.00 | 0.66 | 0.46 | 100 | 1014.4 |
| 20260905024548 | 13 | 208 | 0.0 | 1.6 | 0.00 | 0.66 | 0.46 | 1 | 1014.2 |
| 20260905023046 | 13 | 207 | 0.0 | 3.2 | 0.00 | 0.66 | 0.46 | 10 | 1014.4 |
| 20260905021540 | 13 | 208 | 0.0 | 3.2 | 0.00 | 0.66 | 0.46 | 19 | 1014.4 |
| 20260905020035 | 14 | 193 | 0.0 | 1.6 | 0.00 | 0.71 | 0.46 | 27 | 1014.4 |
| 20260905014530 | 15 | 193 | 0.0 | 6.4 | 0.00 | 0.71 | 0.46 | 40 | 1014.3 |
| 20260905013026 | 16 | 80 | 0.0 | 4.8 | 0.00 | 0.71 | 0.46 | 46 | 1014.2 |
| 20260905011523 | 16 | 198 | 0.0 | 6.4 | 0.00 | 0.71 | 0.46 | 49 | 1014.1 |
| 20260905010017 | 16 | 317 | 0.0 | 6.4 | 0.00 | 0.76 | 0.46 | 51 | 1013.9 |
| 20260905004512 | 16 | 175 | 1.6 | 6.4 | 0.00 | 0.76 | 0.46 | 49 | 1013.8 |
| 20260905003009 | 16 | 179 | 1.6 | 8.0 | 0.00 | 0.76 | 0.46 | 46 | 1013.7 |
| 20260905001505 | 16 | 213 | 3.2 | 11.3 | 0.00 | 0.76 | 0.46 | 48 | 1013.6 |
| 20260905000101 | 16 | 181 | 1.6 | 6.4 | 0.00 | 0.86 | 0.46 | 47 | 1013.6 |
| 20260904234559 | 16 | 209 | 1.6 | 11.3 | 0.00 | 0.86 | 0.46 | 46 | 1013.4 |
| 20260904233054 | 16 | 257 | 0.0 | 6.4 | 0.00 | 0.86 | 0.46 | 40 | 1013.3 |
| 20260904231546 | 16 | 200 | 3.2 | 11.3 | 0.00 | 0.86 | 0.46 | 40 | 1013.2 |
| 20260904230042 | 16 | 194 | 1.6 | 9.7 | 0.00 | 1.02 | 0.46 | 36 | 1013.1 |
| 20260904224538 | 16 | 240 | 1.6 | 8.0 | 0.00 | 1.02 | 0.46 | 5 | 1013.2 |
| 20260904223033 | 15 | 253 | 0.0 | 6.4 | 0.03 | 1.02 | 0.46 | 100 | 1013.2 |
| 20260904221528 | 14 | 254 | 0.0 | 3.2 | 0.03 | 1.02 | 0.46 | 100 | 1013.2 |
| 20260904220024 | 13 | 25 | 0.0 | 1.6 | 0.08 | 1.19 | 0.46 | 100 | 1013.2 |
| 20260904214519 | 13 | 25 | 0.0 | 0.0 | 0.10 | 1.19 | 0.46 | 100 | 1013.1 |
| 20260904213015 | 13 | 25 | 0.0 | 3.2 | 0.08 | 1.17 | 0.43 | 100 | 1013.0 |
| 20260904211511 | 13 | 163 | 0.0 | 3.2 | 0.08 | 1.17 | 0.43 | 100 | 1013.0 |
| 20260904210013 | 13 | 195 | 1.6 | 4.8 | 0.03 | 1.12 | 0.38 | 8 | 1013.1 |
| 20260904204503 | 15 | 219 | 3.2 | 17.7 | 0.00 | 1.09 | 0.36 | 37 | 1013.1 |
| 20260904203059 | 16 | 281 | 0.0 | 6.4 | 0.00 | 1.09 | 0.36 | 45 | 1012.7 |
| 20260904201554 | 16 | 344 | 0.0 | 8.0 | 0.00 | 1.09 | 0.36 | 43 | 1012.5 |
| 20260904200049 | 16 | 213 | 1.6 | 6.4 | 0.00 | 1.09 | 0.36 | 30 | 1012.5 |
| 20260904194555 | 15 | 237 | 1.6 | 3.2 | 0.00 | 1.09 | 0.36 | 8 | 1012.6 |
| 20260904193040 | 15 | 47 | 0.0 | 3.2 | 0.00 | 1.09 | 0.36 | 100 | 1012.8 |
| 20260904191536 | 15 | 305 | 0.0 | 4.8 | 0.00 | 1.09 | 0.36 | 100 | 1012.9 |
| 20260904190031 | 14 | 212 | 0.0 | 3.2 | 0.00 | 1.12 | 0.36 | 100 | 1012.9 |
| 20260904184527 | 13 | 61 | 0.0 | 6.4 | 0.00 | 1.12 | 0.36 | 100 | 1012.9 |
| 20260904183026 | 13 | 178 | 0.0 | 1.6 | 0.00 | 1.12 | 0.36 | 100 | 1012.8 |
| 20260904181523 | 13 | 178 | 0.0 | 1.6 | 0.00 | 1.12 | 0.36 | 100 | 1012.6 |
| 20260904180032 | 13 | 178 | 0.0 | 0.0 | 0.00 | 1.27 | 0.36 | 100 | 1012.6 |
| 20260904174509 | 13 | 178 | 0.0 | 1.6 | 0.00 | 1.27 | 0.36 | 100 | 1012.5 |
| 20260904173006 | 13 | 178 | 0.0 | 0.0 | 0.00 | 1.27 | 0.36 | 100 | 1012.3 |
| 20260904171620 | 12 | 178 | 0.0 | 1.6 | 0.00 | 1.27 | 0.36 | 100 | 1012.2 |
| 20260904170055 | 12 | 178 | 0.0 | 3.2 | 0.00 | 1.27 | 0.36 | 100 | 1012.1 |
| 20260904164606 | 12 | 178 | 0.0 | 1.6 | 0.00 | 1.27 | 0.36 | 100 | 1012.1 |
| 20260904163047 | 12 | 178 | 0.0 | 0.0 | 0.00 | 1.27 | 0.36 | 100 | 1012.0 |
| 20260904161553 | 12 | 178 | 0.0 | 1.6 | 0.00 | 1.27 | 0.36 | 100 | 1011.9 |
| 20260904160039 | 12 | 178 | 0.0 | 1.6 | 0.00 | 1.27 | 0.36 | 100 | 1011.9 |
| 20260904154540 | 11 | 178 | 0.0 | 1.6 | 0.00 | 1.27 | 0.36 | 100 | 1012.0 |
| 20260904153035 | 11 | 178 | 0.0 | 1.6 | 0.03 | 1.27 | 0.36 | 100 | 1011.8 |
| 20260904151524 | 11 | 178 | 0.0 | 1.6 | 0.05 | 1.27 | 0.36 | 100 | 1011.7 |
| 20260904150020 | 11 | 178 | 0.0 | 0.0 | 0.05 | 1.27 | 0.36 | 100 | 1011.5 |
| 20260904144516 | 11 | 178 | 0.0 | 0.0 | 0.05 | 1.27 | 0.36 | 100 | 1011.4 |
| 20260904143016 | 11 | 178 | 0.0 | 0.0 | 0.05 | 1.24 | 0.33 | 100 | 1011.3 |
| 20260904141508 | 11 | 178 | 0.0 | 0.0 | 0.03 | 1.22 | 0.30 | 100 | 1011.2 |
| 20260904140003 | 11 | 178 | 0.0 | 0.0 | 0.03 | 1.45 | 0.30 | 100 | 1011.0 |
| 20260904134603 | 10 | 178 | 0.0 | 1.6 | 0.03 | 1.45 | 0.30 | 100 | 1010.7 |
| 20260904133101 | 10 | 178 | 0.0 | 0.0 | 0.00 | 1.42 | 0.28 | 100 | 1010.5 |
| 20260904131550 | 10 | 178 | 0.0 | 1.6 | 0.00 | 1.42 | 0.28 | 100 | 1010.4 |
| 20260904130045 | 10 | 178 | 0.0 | 1.6 | 0.00 | 1.45 | 0.28 | 100 | 1010.3 |
| 20260904124542 | 10 | 178 | 0.0 | 0.0 | 0.00 | 1.45 | 0.28 | 100 | 1010.2 |
| 20260904123036 | 10 | 178 | 0.0 | 1.6 | 0.00 | 1.45 | 0.28 | 100 | 1010.3 |
| 20260904121533 | 10 | 178 | 0.0 | 0.0 | 0.00 | 1.45 | 0.28 | 100 | 1010.2 |
| 20260904120041 | 10 | 178 | 0.0 | 0.0 | 0.00 | 1.45 | 0.28 | 100 | 1010.1 |
| 20260904114524 | 10 | 178 | 0.0 | 0.0 | 0.00 | 1.45 | 0.28 | 100 | 1009.9 |
| 20260904113021 | 10 | 178 | 0.0 | 0.0 | 0.00 | 1.45 | 0.28 | 100 | 1009.8 |
| 20260904111515 | 10 | 178 | 0.0 | 1.6 | 0.00 | 1.45 | 0.28 | 100 | 1009.8 |
| 20260904110014 | 10 | 178 | 0.0 | 1.6 | 0.03 | 1.45 | 0.28 | 100 | 1009.7 |
| 20260904104506 | 10 | 178 | 0.0 | 1.6 | 0.05 | 1.45 | 0.28 | 100 | 1009.7 |
| 20260904103002 | 10 | 178 | 0.0 | 0.0 | 0.08 | 1.45 | 0.28 | 100 | 1009.6 |
| 20260904101557 | 10 | 178 | 0.0 | 0.0 | 0.08 | 1.45 | 0.28 | 100 | 1009.5 |
| 20260904100112 | 10 | 178 | 0.0 | 0.0 | 0.05 | 1.42 | 0.25 | 100 | 1009.6 |
| 20260904094558 | 10 | 178 | 0.0 | 1.6 | 0.05 | 1.42 | 0.23 | 100 | 1009.6 |
| 20260904093044 | 10 | 178 | 0.0 | 1.6 | 0.08 | 1.40 | 0.20 | 100 | 1009.6 |
| 20260904091541 | 10 | 178 | 0.0 | 3.2 | 0.10 | 1.40 | 0.20 | 100 | 1009.6 |
| 20260904090035 | 10 | 178 | 0.0 | 1.6 | 0.15 | 1.40 | 0.20 | 100 | 1009.8 |
| 20260904084532 | 10 | 178 | 0.0 | 0.0 | 0.18 | 1.37 | 0.18 | 100 | 1009.8 |
| 20260904083028 | 10 | 178 | 0.0 | 0.0 | 0.13 | 1.32 | 0.13 | 100 | 1009.7 |
| 20260904081523 | 10 | 178 | 0.0 | 0.0 | 0.10 | 1.30 | 0.10 | 100 | 1009.5 |
| 20260904080020 | 10 | 178 | 0.0 | 0.0 | 0.05 | 1.24 | 0.05 | 100 | 1009.7 |
| 20260904074514 | 10 | 178 | 0.0 | 0.0 | 0.00 | 1.19 | 0.00 | 100 | 1009.8 |
| 20260904073010 | 10 | 178 | 0.0 | 0.0 | 0.03 | 1.19 | 0.00 | 100 | 1009.7 |
| 20260904071505 | 10 | 178 | 0.0 | 0.0 | 0.03 | 1.19 | 0.00 | 100 | 1009.6 |
| 20260904070101 | 10 | 178 | 0.0 | 0.0 | 0.03 | 1.19 | 1.19 | 100 | 1009.5 |
| 20260904064605 | 10 | 178 | 0.0 | 0.0 | 0.03 | 1.19 | 1.19 | 100 | 1009.6 |
| 20260904063052 | 10 | 178 | 0.0 | 0.0 | 0.00 | 1.17 | 1.17 | 100 | 1009.5 |